Sacramento, CA

4:27 AM PST on February 20, 2018 (GMT -0800)
Sacramento Executive

Weather History for KSAC - April, 2013

Change the Weather History Date:

Wednesday, April 17, 2013

  Actual Average Record
Temperature  
Mean Temperature 58 °F -  
Max Temperature 70 °F 71 °F 90 °F (1954)
Min Temperature 46 °F 46 °F 34 °F (1975)
Degree Days  
Heating Degree Days 7    
Cooling Degree Days 0    
Growing Degree Days 8 (Base 50)    
Moisture  
Dew Point 26 °F    
Average Humidity 35    
Maximum Humidity 53    
Minimum Humidity 16    
Precipitation  
Precipitation 0.00 in 0.04 in 0.88 in (2000)
Month to date precipitation 0.69 0.74  
Year to date precipitation 3.39 10.60  
Since 1 July precipitation 14.68  
Sea Level Pressure  
Sea Level Pressure 30.21 in    
Wind  
Wind Speed 14 mph (NNW)    
Max Wind Speed 25 mph    
Max Gust Speed 33 mph    
Visibility 10 miles    
Events      
T = Trace of Precipitation, MM = Missing Value Source: NWS Daily Summary

Daily Weather History Graph

Daily Weather History Graph

Search for Another Location

Airport or City:

Trip Planner

Search our weather history database for the weather conditions in past years. The results will help you decide how hot, cold, wet, or windy it might be!

Date:

Astronomy

Apr. 17, 2013 Rise Set
Actual Time 6:26 AM PDT 7:44 PM PDT
Civil Twilight 5:59 AM PDT 8:12 PM PDT
Nautical Twilight 5:26 AM PDT 8:45 PM PDT
Astronomical Twilight 4:51 AM PDT 9:20 PM PDT
Moon 11:46 AM PDT (4/17) 1:24 AM PDT (4/17)
Length of Visible Light 14h 13m
Length of Day
13h 18m
Waxing Crescent, 43% of the Moon is Illuminated
Apr 17
Waxing Crescent
Apr 18
First Quarter
Apr 25
Full
May 2
Last Quarter
May 9
New

Hourly Weather History & Observations

Time (PDT) Temp. Windchill Dew Point Humidity Pressure Visibility Wind Dir Wind Speed Gust Speed Precip Events Conditions
12:53 AM 50.0 °F - 27.0 °F 41% 30.17 in 10.0 mi NNW 11.5 mph - N/A   Clear
1:53 AM 50.0 °F - 28.0 °F 43% 30.18 in 10.0 mi North 11.5 mph - N/A   Clear
2:53 AM 48.9 °F - 28.9 °F 46% 30.18 in 10.0 mi NNW 13.8 mph - N/A   Clear
3:53 AM 50.0 °F - 28.0 °F 43% 30.18 in 10.0 mi North 18.4 mph 24.2 mph N/A   Clear
4:53 AM 48.0 °F - 28.9 °F 48% 30.19 in 10.0 mi North 16.1 mph 23.0 mph N/A   Clear
5:53 AM 46.0 °F 40.2 °F 28.9 °F 51% 30.21 in 10.0 mi NNW 12.7 mph - N/A   Clear
6:53 AM 46.4 °F 41.1 °F 30.2 °F 53% 30.23 in 10.0 mi NNW 11.5 mph - N/A   Clear
7:53 AM 48.9 °F - 30.0 °F 48% 30.25 in 10.0 mi NNW 17.3 mph 23.0 mph N/A   Clear
8:53 AM 55.0 °F - 30.9 °F 40% 30.25 in 10.0 mi NNW 13.8 mph 20.7 mph N/A   Clear
9:53 AM 60.1 °F - 28.0 °F 30% 30.25 in 10.0 mi North 23.0 mph 31.1 mph N/A   Clear
10:53 AM 62.1 °F - 21.9 °F 21% 30.26 in 10.0 mi North 21.9 mph 31.1 mph N/A   Clear
11:53 AM 64.9 °F - 23.0 °F 20% 30.25 in 10.0 mi NNW 17.3 mph 31.1 mph N/A   Clear
12:53 PM 66.0 °F - 23.0 °F 20% 30.25 in 10.0 mi NNW 15.0 mph 26.5 mph N/A   Clear
1:53 PM 66.9 °F - 23.0 °F 19% 30.23 in 10.0 mi NNW 16.1 mph - N/A   Clear
2:53 PM 69.1 °F - 23.0 °F 18% 30.21 in 10.0 mi NNW 15.0 mph 27.6 mph N/A   Clear
3:53 PM 69.1 °F - 21.0 °F 16% 30.19 in 10.0 mi NW 18.4 mph 24.2 mph N/A   Clear
4:53 PM 70.0 °F - 21.9 °F 16% 30.18 in 10.0 mi NNW 16.1 mph 21.9 mph N/A   Clear
5:53 PM 69.1 °F - 21.0 °F 16% 30.17 in 10.0 mi NW 16.1 mph - N/A   Clear
6:53 PM 68.0 °F - 21.9 °F 17% 30.18 in 10.0 mi NNW 11.5 mph - N/A   Clear
7:53 PM 63.0 °F - 23.0 °F 22% 30.17 in 10.0 mi NW 4.6 mph - N/A   Clear
8:53 PM 57.9 °F - 27.0 °F 31% 30.19 in 10.0 mi West 5.8 mph - N/A   Clear
9:53 PM 53.1 °F - 28.9 °F 40% 30.21 in 10.0 mi Calm Calm - N/A   Clear
10:53 PM 57.0 °F - 26.1 °F 30% 30.22 in 10.0 mi NNW 8.1 mph - N/A   Clear
11:53 PM 55.0 °F - 26.1 °F 33% 30.21 in 10.0 mi NNW 5.8 mph - N/A   Clear